TimeCST,TemperatureF,Dew PointF,Humidity,Sea Level PressureIn,VisibilityMPH,Wind Direction,Wind SpeedMPH,Gust SpeedMPH,PrecipitationIn,Events,Conditions,WindDirDegrees,DateUTC
12:15 AM,44.6,30.2,57,30.21,10.0,South,5.8,-,N/A,,Mostly Cloudy,180,2012-11-15 06:15:00
12:35 AM,44.6,30.2,57,30.21,10.0,South,9.2,-,N/A,,Scattered Clouds,180,2012-11-15 06:35:00
12:55 AM,44.6,30.2,57,30.21,10.0,South,9.2,-,N/A,,Scattered Clouds,180,2012-11-15 06:55:00
1:15 AM,44.6,30.2,57,30.21,10.0,South,9.2,-,N/A,,Scattered Clouds,190,2012-11-15 07:15:00
1:35 AM,44.6,30.2,57,30.20,10.0,South,11.5,-,N/A,,Clear,190,2012-11-15 07:35:00
1:55 AM,44.6,30.2,57,30.20,10.0,South,11.5,-,N/A,,Scattered Clouds,190,2012-11-15 07:55:00
2:15 AM,44.6,30.2,57,30.21,10.0,South,6.9,-,N/A,,Scattered Clouds,190,2012-11-15 08:15:00
2:35 AM,44.6,30.2,57,30.21,10.0,SSW,5.8,-,N/A,,Scattered Clouds,200,2012-11-15 08:35:00
2:55 AM,44.6,30.2,57,30.21,10.0,SSW,8.1,-,N/A,,Overcast,200,2012-11-15 08:55:00
3:15 AM,44.6,32.0,61,30.21,10.0,South,6.9,-,N/A,,Mostly Cloudy,190,2012-11-15 09:15:00
3:35 AM,44.6,32.0,61,30.21,10.0,SSW,5.8,-,N/A,,Mostly Cloudy,200,2012-11-15 09:35:00
3:55 AM,42.8,32.0,66,30.21,10.0,South,9.2,-,N/A,,Scattered Clouds,190,2012-11-15 09:55:00
4:15 AM,42.8,32.0,66,30.20,10.0,South,9.2,-,N/A,,Scattered Clouds,190,2012-11-15 10:15:00
4:35 AM,42.8,32.0,66,30.20,10.0,SSW,6.9,-,N/A,,Clear,200,2012-11-15 10:35:00
4:55 AM,44.6,32.0,61,30.21,10.0,South,6.9,-,N/A,,Clear,190,2012-11-15 10:55:00
5:15 AM,44.6,32.0,61,30.21,10.0,South,5.8,-,N/A,,Scattered Clouds,180,2012-11-15 11:15:00
5:35 AM,42.8,32.0,66,30.21,10.0,SSW,3.5,-,N/A,,Scattered Clouds,200,2012-11-15 11:35:00
6:15 AM,42.8,32.0,66,30.22,10.0,South,5.8,-,N/A,,Scattered Clouds,190,2012-11-15 12:15:00
6:35 AM,42.8,32.0,66,30.22,10.0,South,5.8,-,N/A,,Clear,180,2012-11-15 12:35:00
6:55 AM,42.8,32.0,66,30.23,10.0,Calm,Calm,-,N/A,,Scattered Clouds,0,2012-11-15 12:55:00
7:15 AM,42.8,32.0,66,30.24,10.0,SW,5.8,-,N/A,,Mostly Cloudy,220,2012-11-15 13:15:00
7:35 AM,41.0,32.0,70,30.25,10.0,Calm,Calm,-,N/A,,Scattered Clouds,0,2012-11-15 13:35:00
7:55 AM,42.8,33.8,70,30.26,10.0,SW,4.6,-,N/A,,Scattered Clouds,230,2012-11-15 13:55:00
8:15 AM,42.8,33.8,70,30.27,10.0,Calm,Calm,-,N/A,,Scattered Clouds,0,2012-11-15 14:15:00
8:35 AM,42.8,33.8,70,30.27,10.0,SSW,3.5,-,N/A,,Mostly Cloudy,210,2012-11-15 14:35:00
8:55 AM,42.8,33.8,70,30.27,10.0,SW,3.5,-,N/A,,Scattered Clouds,230,2012-11-15 14:55:00
9:15 AM,44.6,33.8,66,30.28,10.0,SW,4.6,-,N/A,,Scattered Clouds,230,2012-11-15 15:15:00
9:35 AM,46.4,35.6,66,30.28,10.0,SW,8.1,-,N/A,,Scattered Clouds,230,2012-11-15 15:35:00
9:55 AM,48.2,35.6,62,30.29,10.0,WSW,9.2,-,N/A,,Scattered Clouds,240,2012-11-15 15:55:00
10:15 AM,48.2,35.6,62,30.30,10.0,West,4.6,-,N/A,,Scattered Clouds,260,2012-11-15 16:15:00
10:35 AM,51.8,35.6,54,30.30,10.0,WNW,4.6,-,N/A,,Scattered Clouds,290,2012-11-15 16:35:00
10:55 AM,51.8,35.6,54,30.30,10.0,NNW,4.6,-,N/A,,Clear,340,2012-11-15 16:55:00
11:15 AM,53.6,35.6,51,30.30,10.0,NW,3.5,-,N/A,,Clear,310,2012-11-15 17:15:00
11:35 AM,53.6,35.6,51,30.30,10.0,NW,6.9,-,N/A,,Clear,320,2012-11-15 17:35:00
11:55 AM,55.4,35.6,47,30.29,10.0,NNW,5.8,-,N/A,,Clear,330,2012-11-15 17:55:00
12:15 PM,57.2,33.8,41,30.29,10.0,NNW,8.1,-,N/A,,Clear,340,2012-11-15 18:15:00
12:35 PM,57.2,33.8,41,30.29,10.0,NW,8.1,-,N/A,,Clear,320,2012-11-15 18:35:00
12:55 PM,57.2,33.8,41,30.28,10.0,NNW,9.2,-,N/A,,Clear,330,2012-11-15 18:55:00
1:15 PM,59.0,30.2,34,30.28,10.0,NNW,8.1,-,N/A,,Clear,330,2012-11-15 19:15:00
1:35 PM,59.0,33.8,39,30.28,10.0,North,11.5,16.1,N/A,,Clear,350,2012-11-15 19:35:00
1:55 PM,60.8,33.8,36,30.28,10.0,North,11.5,16.1,N/A,,Clear,350,2012-11-15 19:55:00
2:15 PM,60.8,32.0,34,30.28,10.0,NNW,10.4,16.1,N/A,,Clear,340,2012-11-15 20:15:00
2:35 PM,59.0,28.4,31,30.28,10.0,NNW,10.4,16.1,N/A,,Clear,340,2012-11-15 20:35:00
2:55 PM,59.0,30.2,34,30.28,10.0,NNW,11.5,-,N/A,,Clear,330,2012-11-15 20:55:00
3:15 PM,59.0,28.4,31,30.29,10.0,NNW,8.1,-,N/A,,Clear,330,2012-11-15 21:15:00
3:35 PM,57.2,30.2,36,30.30,10.0,North,11.5,-,N/A,,Clear,350,2012-11-15 21:35:00
3:55 PM,57.2,30.2,36,30.31,10.0,NNW,9.2,-,N/A,,Clear,340,2012-11-15 21:55:00
4:15 PM,55.4,30.2,38,30.31,10.0,NNW,8.1,-,N/A,,Clear,330,2012-11-15 22:15:00
4:35 PM,53.6,30.2,41,30.32,10.0,NNW,6.9,-,N/A,,Clear,340,2012-11-15 22:35:00
4:55 PM,51.8,32.0,47,30.33,10.0,NW,5.8,-,N/A,,Clear,320,2012-11-15 22:55:00
5:15 PM,50.0,32.0,50,30.34,10.0,NW,5.8,-,N/A,,Clear,320,2012-11-15 23:15:00
5:35 PM,48.2,32.0,54,30.34,10.0,NW,4.6,-,N/A,,Clear,320,2012-11-15 23:35:00
5:55 PM,46.4,33.8,62,30.35,10.0,NW,4.6,-,N/A,,Clear,320,2012-11-15 23:55:00
6:15 PM,46.4,32.0,57,30.36,10.0,NW,3.5,-,N/A,,Clear,320,2012-11-16 00:15:00
6:35 PM,44.6,33.8,66,30.37,10.0,NW,4.6,-,N/A,,Clear,320,2012-11-16 00:35:00
6:55 PM,44.6,33.8,66,30.38,10.0,NW,5.8,-,N/A,,Clear,320,2012-11-16 00:55:00
7:15 PM,44.6,33.8,66,30.38,10.0,NW,6.9,-,N/A,,Clear,320,2012-11-16 01:15:00
7:35 PM,42.8,32.0,66,30.39,10.0,NNW,5.8,-,N/A,,Clear,330,2012-11-16 01:35:00
7:55 PM,42.8,32.0,66,30.39,10.0,NNW,5.8,-,N/A,,Clear,330,2012-11-16 01:55:00
8:15 PM,41.0,33.8,76,30.40,10.0,NNW,4.6,-,N/A,,Clear,340,2012-11-16 02:15:00
8:35 PM,42.8,33.8,70,30.40,10.0,North,10.4,-,N/A,,Clear,350,2012-11-16 02:35:00
8:55 PM,41.0,32.0,70,30.41,10.0,North,9.2,-,N/A,,Clear,360,2012-11-16 02:55:00
9:15 PM,39.2,30.2,70,30.41,10.0,North,6.9,-,N/A,,Clear,360,2012-11-16 03:15:00
9:35 PM,37.4,30.2,75,30.42,10.0,NNE,3.5,-,N/A,,Clear,20,2012-11-16 03:35:00
9:55 PM,35.6,28.4,75,30.42,10.0,North,4.6,-,N/A,,Clear,360,2012-11-16 03:55:00
10:15 PM,35.6,28.4,75,30.43,10.0,North,5.8,-,N/A,,Clear,360,2012-11-16 04:15:00
10:35 PM,35.6,28.4,75,30.43,10.0,North,5.8,-,N/A,,Clear,350,2012-11-16 04:35:00
10:55 PM,33.8,28.4,81,30.43,10.0,North,4.6,-,N/A,,Clear,360,2012-11-16 04:55:00
11:15 PM,33.8,28.4,81,30.44,10.0,Calm,Calm,-,N/A,,Clear,0,2012-11-16 05:15:00
11:35 PM,32.0,26.6,80,30.44,10.0,North,5.8,-,N/A,,Clear,360,2012-11-16 05:35:00
11:55 PM,33.8,28.4,81,30.45,10.0,North,3.5,-,N/A,,Clear,10,2012-11-16 05:55:00